• In Italy
  • List of Countries
  • For 7 days
  • Water Temperature
  • Satellite Maps
  • Weather Map
  • Weather Widgets
  • user-avatar
    Login

    Hourly Weather Nazaret

    Today, 23 September, Saturday

    Time Temperature Precipitation Wind Pressure Humidity
    00:00 +24°C° 0 mm 2 mps 729 mmHg 71%
    01:00 +24°C° 0 mm 2 mps 729 mmHg 72%
    02:00 +24°C° 0 mm 2 mps 729 mmHg 72%
    03:00 +23°C° 0 mm 2 mps 729 mmHg 72%
    04:00 +23°C° 0 mm 2 mps 729 mmHg 72%
    05:00 +23°C° 0 mm 2 mps 730 mmHg 73%
    06:00 +24°C° 0 mm 2 mps 730 mmHg 67%
    07:00 +25°C° 0 mm 2 mps 730 mmHg 61%
    08:00 +26°C° 0 mm 3 mps 730 mmHg 53%
    09:00 +27°C° 0 mm 3 mps 730 mmHg 49%
    10:00 +28°C° 0 mm 4 mps 731 mmHg 45%
    11:00 +29°C° 0 mm 4 mps 731 mmHg 41%
    12:00 +30°C° 0 mm 4 mps 730 mmHg 40%
    13:00 +30°C° 0 mm 5 mps 730 mmHg 39%
    14:00 +30°C° 0 mm 5 mps 730 mmHg 39%
    15:00 +29°C° 0 mm 5 mps 730 mmHg 41%
    16:00 +28°C° 0 mm 5 mps 729 mmHg 44%
    17:00 +27°C° 0 mm 5 mps 729 mmHg 47%
    18:00 +26°C° 0 mm 4 mps 729 mmHg 50%
    19:00 +25°C° 0 mm 4 mps 729 mmHg 54%
    20:00 +25°C° 0 mm 3 mps 729 mmHg 57%
    21:00 +24°C° 0 mm 3 mps 729 mmHg 59%
    22:00 +24°C° 0 mm 3 mps 729 mmHg 61%
    23:00 +23°C° 0 mm 2 mps 729 mmHg 63%

    Tomorrow, 24 September, Sunday

    Time Temperature Precipitation Wind Pressure Humidity
    00:00 +23°C° 0 mm 2 mps 729 mmHg 64%
    01:00 +23°C° 0 mm 2 mps 729 mmHg 65%
    02:00 +23°C° 0 mm 1 mps 729 mmHg 66%
    03:00 +22°C° 0 mm 1 mps 729 mmHg 67%
    04:00 +22°C° 0 mm 1 mps 729 mmHg 68%
    05:00 +22°C° 0 mm 1 mps 729 mmHg 69%
    06:00 +23°C° 0 mm 1 mps 729 mmHg 64%
    07:00 +24°C° 0 mm 1 mps 729 mmHg 58%
    08:00 +25°C° 0 mm 2 mps 729 mmHg 53%
    09:00 +27°C° 0 mm 2 mps 729 mmHg 48%
    10:00 +28°C° 0 mm 3 mps 729 mmHg 43%
    11:00 +30°C° 0 mm 4 mps 729 mmHg 37%
    12:00 +30°C° 0 mm 4 mps 729 mmHg 38%
    13:00 +30°C° 0 mm 4 mps 728 mmHg 38%
    14:00 +32°C° 0 mm 5 mps 728 mmHg 38%
    15:00 +29°C° 0 mm 5 mps 728 mmHg 42%
    16:00 +28°C° 0 mm 5 mps 728 mmHg 46%
    17:00 +27°C° 0 mm 4 mps 728 mmHg 50%
    18:00 +26°C° 0 mm 4 mps 728 mmHg 54%
    19:00 +26°C° 0 mm 3 mps 728 mmHg 58%
    20:00 +25°C° 0 mm 3 mps 728 mmHg 63%
    21:00 +24°C° 0 mm 2 mps 729 mmHg 64%
    22:00 +24°C° 0 mm 2 mps 729 mmHg 66%
    23:00 +24°C° 0 mm 1 mps 729 mmHg 68%

    Day after tomorrow, 25 September, Monday

    Time Temperature Precipitation Wind Pressure Humidity
    00:00 +23°C° 0 mm 1 mps 729 mmHg 70%
    01:00 +23°C° 0 mm 1 mps 729 mmHg 71%
    02:00 +23°C° 0 mm 1 mps 728 mmHg 72%
    03:00 +22°C° 0 mm 1 mps 728 mmHg 74%
    04:00 +22°C° 0 mm 1 mps 728 mmHg 75%
    05:00 +20°C° 0 mm 0 mps 728 mmHg 76%
    06:00 +23°C° 0 mm 1 mps 728 mmHg 70%
    07:00 +24°C° 0 mm 1 mps 729 mmHg 64%
    08:00 +25°C° 0 mm 1 mps 729 mmHg 58%
    09:00 +27°C° 0 mm 1 mps 729 mmHg 50%
    10:00 +28°C° 0 mm 2 mps 729 mmHg 43%
    11:00 +30°C° 0 mm 2 mps 729 mmHg 36%
    12:00 +31°C° 0 mm 3 mps 729 mmHg 35%
    13:00 +32°C° 0 mm 4 mps 729 mmHg 34%
    14:00 +33°C° 0 mm 4 mps 728 mmHg 33%
    15:00 +30°C° 0 mm 4 mps 728 mmHg 39%
    16:00 +29°C° 0 mm 4 mps 728 mmHg 44%
    17:00 +28°C° 0 mm 4 mps 728 mmHg 50%
    18:00 +27°C° 0 mm 3 mps 728 mmHg 55%
    19:00 +26°C° 0 mm 3 mps 729 mmHg 59%
    20:00 +25°C° 0 mm 2 mps 729 mmHg 63%
    21:00 +25°C° 0 mm 2 mps 729 mmHg 65%
    22:00 +24°C° 0 mm 1 mps 729 mmHg 68%
    23:00 +24°C° 0 mm 1 mps 729 mmHg 70%

    26 September, Tuesday

    Time Temperature Precipitation Wind Pressure Humidity
    00:00 +23°C° 0 mm 1 mps 728 mmHg 72%
    01:00 +23°C° 0 mm 1 mps 728 mmHg 73%
    02:00 +23°C° 0 mm 1 mps 728 mmHg 75%
    03:00 +22°C° 0 mm 1 mps 728 mmHg 76%
    04:00 +22°C° 0 mm 1 mps 728 mmHg 78%
    05:00 +22°C° 0 mm 1 mps 728 mmHg 79%
    06:00 +23°C° 0 mm 1 mps 728 mmHg 74%
    07:00 +24°C° 0 mm 1 mps 729 mmHg 68%
    08:00 +25°C° 0 mm 1 mps 729 mmHg 62%
    09:00 +27°C° 0 mm 2 mps 729 mmHg 55%
    10:00 +28°C° 0 mm 2 mps 729 mmHg 48%
    11:00 +29°C° 0 mm 3 mps 729 mmHg 41%
    12:00 +30°C° 0 mm 3 mps 729 mmHg 40%
    13:00 +30°C° 0 mm 4 mps 729 mmHg 40%
    14:00 +32°C° 0 mm 5 mps 728 mmHg 39%
    15:00 +30°C° 0 mm 5 mps 728 mmHg 43%
    16:00 +29°C° 0 mm 4 mps 728 mmHg 48%
    17:00 +27°C° 0 mm 4 mps 728 mmHg 52%
    18:00 +27°C° 0 mm 4 mps 729 mmHg 56%
    19:00 +26°C° 0 mm 3 mps 729 mmHg 60%
    20:00 +25°C° 0 mm 2 mps 729 mmHg 65%
    21:00 +25°C° 0 mm 2 mps 729 mmHg 67%
    22:00 +24°C° 0 mm 2 mps 729 mmHg 69%
    23:00 +24°C° 0 mm 2 mps 729 mmHg 71%

    27 September, Wednesday

    Time Temperature Precipitation Wind Pressure Humidity
    00:00 +24°C° 0 mm 2 mps 729 mmHg 73%
    01:00 +23°C° 0 mm 2 mps 729 mmHg 74%
    02:00 +23°C° 0 mm 2 mps 729 mmHg 75%
    03:00 +23°C° 0 mm 2 mps 729 mmHg 76%
    04:00 +23°C° 0 mm 1 mps 730 mmHg 77%
    05:00 +22°C° 0 mm 1 mps 730 mmHg 78%
    06:00 +23°C° 0 mm 1 mps 730 mmHg 72%
    07:00 +24°C° 0 mm 2 mps 730 mmHg 66%
    08:00 +26°C° 0 mm 2 mps 731 mmHg 60%
    09:00 +27°C° 0 mm 2 mps 731 mmHg 53%
    10:00 +28°C° 0 mm 3 mps 731 mmHg 46%
    11:00 +30°C° 0 mm 3 mps 731 mmHg 38%
    12:00 +30°C° 0 mm 4 mps 730 mmHg 38%
    13:00 +32°C° 0 mm 4 mps 730 mmHg 38%
    14:00 +32°C° 0 mm 5 mps 729 mmHg 37%
    15:00 +30°C° 0 mm 5 mps 729 mmHg 42%
    16:00 +28°C° 0 mm 5 mps 729 mmHg 47%
    17:00 +27°C° 0 mm 5 mps 729 mmHg 53%
    18:00 +26°C° 0 mm 4 mps 730 mmHg 57%
    19:00 +26°C° 0 mm 3 mps 730 mmHg 62%
    20:00 +25°C° 0 mm 3 mps 730 mmHg 66%
    21:00 +24°C° 0 mm 2 mps 730 mmHg 68%
    22:00 +24°C° 0 mm 2 mps 730 mmHg 70%
    23:00 +23°C° 0 mm 1 mps 730 mmHg 73%

    28 September, Thursday

    Time Temperature Precipitation Wind Pressure Humidity
    00:00 +23°C° 0 mm 1 mps 730 mmHg 74%
    01:00 +23°C° 0 mm 1 mps 730 mmHg 76%
    02:00 +22°C° 0 mm 1 mps 729 mmHg 77%
    03:00 +22°C° 0 mm 1 mps 730 mmHg 78%
    04:00 +22°C° 0 mm 1 mps 730 mmHg 79%
    05:00 +22°C° 0 mm 1 mps 730 mmHg 80%
    06:00 +23°C° 0 mm 1 mps 730 mmHg 74%
    07:00 +24°C° 0 mm 1 mps 730 mmHg 68%
    08:00 +25°C° 0 mm 1 mps 731 mmHg 62%
    09:00 +26°C° 0 mm 2 mps 731 mmHg 55%
    10:00 +28°C° 0 mm 2 mps 731 mmHg 47%
    11:00 +29°C° 0 mm 3 mps 731 mmHg 40%
    12:00 +29°C° 0 mm 3 mps 730 mmHg 39%
    13:00 +30°C° 0 mm 4 mps 730 mmHg 39%
    14:00 +30°C° 0 mm 5 mps 729 mmHg 38%
    15:00 +29°C° 0 mm 5 mps 729 mmHg 43%
    16:00 +28°C° 0 mm 4 mps 729 mmHg 49%
    17:00 +27°C° 0 mm 4 mps 729 mmHg 54%
    18:00 +26°C° 0 mm 4 mps 730 mmHg 58%
    19:00 +25°C° 0 mm 3 mps 730 mmHg 62%
    20:00 +25°C° 0 mm 3 mps 730 mmHg 65%
    21:00 +24°C° 0 mm 2 mps 730 mmHg 67%
    22:00 +24°C° 0 mm 2 mps 730 mmHg 69%
    23:00 +23°C° 0 mm 2 mps 730 mmHg 71%
    Show more